Montego Bay, Jamaica

12:29 PM EST on May 21, 2018 (GMT -0500)
Sangster International

Weather History for MKJS - September, 2013

Change the Weather History Date:

Monday, September 9, 2013

  Actual Average Record
Temperature  
Mean Temperature 84 °F -  
Max Temperature 91 °F 86 °F 94 °F (2012)
Min Temperature 76 °F 77 °F 76 °F (2013)
Cooling Degree Days 18    
Growing Degree Days 34 (Base 50)    
Moisture  
Dew Point 76 °F    
Average Humidity 85    
Maximum Humidity 100    
Minimum Humidity 70    
Precipitation  
Precipitation 0.83 in - - ()
Sea Level Pressure  
Sea Level Pressure 29.87 in    
Wind  
Wind Speed 4 mph ()    
Max Wind Speed 15 mph    
Max Gust Speed -    
Visibility 8.0 miles    
Events Rain , Thunderstorm    
Averages and records for this station are not official NWS values.
T = Trace of Precipitation, MM = Missing Value Source: Averaged Metar Reports

Daily Weather History Graph

Daily Weather History Graph

Search for Another Location

Airport or City:

Astronomy

Sep. 09, 2013 Rise Set
Actual Time 5:58 AM EST 6:18 PM EST
Civil Twilight 5:36 AM EST 6:40 PM EST
Nautical Twilight 5:10 AM EST 7:06 PM EST
Astronomical Twilight 4:45 AM EST 7:32 PM EST
Moon 9:35 AM EST (9/9) 9:18 PM EST (9/9)
Length of Visible Light 13h 04m
Length of Day
12h 20m
Waxing Crescent, 19% of the Moon is Illuminated
Sep 9
Waxing Crescent
Sep 12
First Quarter
Sep 19
Full
Sep 26
Last Quarter
Oct 4
New

Hourly Weather History & Observations

Time (EST) Temp. Heat Index Dew Point Humidity Pressure Visibility Wind Dir Wind Speed Gust Speed Precip Events Conditions
12:00 AM 80.6 °F 86.2 °F 75.2 °F 84% 29.86 in 6.2 mi SSE 3.5 mph - N/A   Partly Cloudy
1:00 AM 80 °F - 74 °F 77% 29.87 in 16 mi East 3.5 mph - -   Scattered Clouds
1:00 AM 80.6 °F 85.4 °F 73.4 °F 79% 29.86 in 6.2 mi East 3.5 mph - N/A   Partly Cloudy
2:00 AM 80.6 °F 85.4 °F 73.4 °F 79% 29.83 in 6.2 mi East 2.3 mph - N/A   Partly Cloudy
3:00 AM 78.8 °F - 73.4 °F 83% 29.83 in 6.2 mi SSE 2.3 mph - N/A   Partly Cloudy
4:00 AM 78 °F - 74 °F 83% 29.86 in 16 mi SSW 2.3 mph - -   Scattered Clouds
4:00 AM 77.0 °F - 73.4 °F 89% 29.86 in 6.2 mi SSW 2.3 mph - N/A   Partly Cloudy
5:00 AM 77.0 °F - 73.4 °F 89% 29.86 in 6.2 mi South 4.6 mph - N/A   Partly Cloudy
6:00 AM 78.8 °F - 73.4 °F 83% 29.89 in 6.2 mi South 2.3 mph - N/A   Partly Cloudy
7:00 AM 81 °F - 75 °F 77% 29.90 in 16 mi NW 1.2 mph - -   Scattered Clouds
7:00 AM 80.6 °F 86.2 °F 75.2 °F 84% 29.89 in 6.2 mi Variable 1.2 mph - N/A   Partly Cloudy
8:00 AM 84.2 °F 94.1 °F 77.0 °F 79% 29.92 in 6.2 mi North 2.3 mph - N/A   Partly Cloudy
9:00 AM 84.2 °F 94.1 °F 77.0 °F 79% 29.92 in 6.2 mi North 2.3 mph - N/A   Partly Cloudy
10:00 AM 85 °F - 77 °F 70% 29.93 in 17 mi NE 5.8 mph - -   Scattered Clouds
10:00 AM - - - N/A% - - NE 5.8 mph - N/A   Unknown
11:00 AM 86.0 °F 99.3 °F 78.8 °F 79% 29.92 in 6.2 mi NE 9.2 mph - N/A   Partly Cloudy
12:00 PM 87.8 °F 104.9 °F 80.6 °F 79% 29.89 in 6.2 mi ENE 8.1 mph - N/A   Partly Cloudy
1:00 PM 88 °F - 80 °F 71% 29.87 in 17 mi ENE 11.5 mph - -   Haze
1:00 PM 87.8 °F 104.9 °F 80.6 °F 79% 29.86 in 6.2 mi ENE 11.5 mph - N/A   Partly Cloudy
1:24 PM 87.8 °F 99.7 °F 77.0 °F 70% 29.83 in 6.2 mi ENE 11.5 mph - N/A Rain , Thunderstorm Light Thunderstorms and Rain
2:00 PM 78.8 °F - 75.2 °F 89% 29.83 in 1.2 mi SSE 15.0 mph - N/A Rain , Thunderstorm Thunderstorms and Rain
2:26 PM 77.0 °F - 75.2 °F 94% 29.86 in 3.1 mi East 6.9 mph - N/A Rain , Thunderstorm Light Thunderstorms and Rain
3:00 PM 77.0 °F - 75.2 °F 94% 29.86 in 6.2 mi ENE 9.2 mph - N/A Rain , Thunderstorm Light Thunderstorms and Rain
4:00 PM 78 °F - 76 °F 92% 29.84 in 16 mi Calm Calm - - Rain , Thunderstorm Thunderstorms and Rain
4:00 PM 77.0 °F - 77.0 °F 100% 29.83 in 6.2 mi Calm Calm - N/A Rain , Thunderstorm Light Thunderstorms and Rain
5:00 PM 78.8 °F - 75.2 °F 89% 29.83 in 6.2 mi SSW 3.5 mph - N/A Rain Light Rain
6:00 PM 78.8 °F - 77.0 °F 94% 29.86 in 6.2 mi SSW 2.3 mph - N/A Rain Light Rain
7:00 PM 79 °F - 77 °F 91% 29.88 in 12 mi East 4.6 mph - - Rain Light Rain
7:00 PM 78.8 °F - 77.0 °F 94% 29.86 in 6.2 mi East 4.6 mph - N/A Rain , Thunderstorm Light Rain
8:00 PM 78.8 °F - 77.0 °F 94% 29.86 in 6.2 mi SSE 2.3 mph - N/A Thunderstorm Scattered Clouds
9:00 PM 78.8 °F - 77.0 °F 94% 29.89 in 6.2 mi East 4.6 mph - N/A Thunderstorm Scattered Clouds
10:00 PM 78.8 °F - 77.0 °F 94% 29.92 in 6.2 mi ESE 6.9 mph - N/A Thunderstorm Scattered Clouds
11:00 PM 78.8 °F - 77.0 °F 94% 29.92 in 6.2 mi South 3.5 mph - N/A   Partly Cloudy